Content
SEND FEEDBACK

Daily
Averages
Monthly
Summary
United States of America

TAMUNING, GUAM


Home > North America > United States > Guam
Elevation: 250 feet     Latitude: 13 29N     Longitude: 144 47E

WEATHER
 
SELECT A DAY
Number of Records: 357,336;   Date Range: 1/1/95 - 12/26/14
 
SHARE

PRINT THIS DATA

[ ← Previous Day ]
WEATHER ALMANAC - FEBRUARY 1, 2013
[ Next Day → ]
[ °C ]   °F
Weather ElementAverageHighLow
Temperature77.5 °F81.7 °F (11:55 am)75.2 °F (2:02 am)
Dewpoint66.7 °F69.8 °F (12:49 am)63.3 °F (11:55 pm)
Humidity69.3 %83 % (2:02 am)59 % (11:55 am)
Barometer29.99 in30.06 in (9:55 am)29.95 in (3:45 pm)
Wind Speed23 mph28.8 mph (3:55 am)
Wind Gust35.7 mph (3:31 am)
Weather ElementAverage
Visibility10 mi
Wind DirectionNNE (38.8 °)

Weather ElementTotal
Precipitation---
Cooling Degree Days13.5 (Base 65)
Growing Degree Days28.5 (Base 50)
Averaged from 58 records on February 1, 2013
WEATHER CONDITIONS BREAKOUT
WIND DIRECTION BREAKOUT
WEATHER BY HOUR - FEBRUARY 1, 2013
[ °C ]   °F
Local TimeTemperatureDewpointHumidityBarometerVisibilityWind DirectionWind SpeedGust SpeedPrecipitationEventsConditions
12:49 AM77.0 °F69.8 °F78 %30.01 in10.0 miNNE (30°)26.5 mph32.2 mphOvercast
12:53 AM77.0 °F69.8 °F78 %30.01 in10.0 miNNE (30°)21.9 mph32.2 mphOvercast
12:55 AM76.1 °F69.8 °F81 %30.01 in10.0 miNNE (30°)25.3 mph32.2 mphOvercast
1:55 AM75.4 °F69.4 °F82 %29.99 in10.0 miNNE (30°)25.3 mph32.2 mphMostly Cloudy
2:02 AM75.2 °F69.8 °F83 %29.99 in10.0 miNNE (30°)25.3 mph33.4 mphMostly Cloudy
2:55 AM75.4 °F68.9 °F80 %29.98 in10.0 miNNE (20°)24.2 mph33.4 mphMostly Cloudy
2:59 AM75.2 °F68.0 °F78 %29.98 in10.0 miNNE (20°)27.6 mph33.4 mphScattered Clouds
3:31 AM75.2 °F68.0 °F78 %29.97 in10.0 miNNE (30°)25.3 mph35.7 mphMostly Cloudy
3:50 AM75.2 °F68.0 °F78 %29.97 in10.0 miNNE (30°)25.3 mph35.7 mphScattered Clouds
3:55 AM75.6 °F68.4 °F78 %29.97 in10.0 miNNE (20°)28.8 mph35.7 mphScattered Clouds
4:19 AM75.2 °F68.0 °F78 %29.97 in10.0 miNNE (30°)23.0 mph33.4 mphMostly Cloudy
4:44 AM75.2 °F68.0 °F78 %29.98 in10.0 miNNE (20°)25.3 mph34.5 mphMostly Cloudy
4:45 AM75.2 °F68.0 °F78 %29.98 in10.0 miNNE (20°)25.3 mph34.5 mphMostly Cloudy
4:55 AM75.7 °F67.8 °F76 %29.98 in10.0 miNNE (30°)19.6 mph31.1 mphOvercast
5:26 AM75.2 °F66.2 °F73 %29.99 in10.0 miNE (40°)25.3 mph29.9 mphMostly Cloudy
5:27 AM75.2 °F66.2 °F73 %29.99 in10.0 miNE (40°)25.3 mph29.9 mphMostly Cloudy
5:51 AM75.2 °F64.4 °F69 %29.99 in10.0 miNE (40°)23.0 mph29.9 mphOvercast
5:54 AM77.0 °F64.4 °F65 %30.00 in10.0 miNE (40°)23.0 mph29.9 mphOvercast
5:55 AM76.1 °F65.3 °F69 %29.99 in10.0 miNE (40°)21.9 mph29.9 mphMostly Cloudy
6:13 AM75.2 °F66.2 °F73 %30.00 in10.0 miNE (40°)24.2 mph31.1 mphOvercast
6:55 AM76.1 °F66.6 °F72 %30.02 in10.0 miNNE (30°)18.4 mph29.9 mphOvercast
6:57 AM77.0 °F66.2 °F69 %30.02 in10.0 miNNE (30°)19.6 mph29.9 mphOvercast
7:15 AM77.0 °F66.2 °F69 %30.02 in10.0 miNE (40°)19.6 mph29.9 mphOvercast
7:55 AM76.6 °F66.0 °F70 %30.04 in10.0 miNNE (30°)23.0 mphMostly Cloudy
8:18 AM77.0 °F66.2 °F69 %30.04 in10.0 miNE (40°)20.7 mph27.6 mphMostly Cloudy
8:22 AM77.0 °F66.2 °F69 %30.05 in10.0 miNE (40°)20.7 mph29.9 mphMostly Cloudy
8:55 AM78.4 °F65.7 °F65 %30.05 in10.0 miNNE (30°)21.9 mphMostly Cloudy
9:55 AM80.1 °F66.2 °F62 %30.06 in10.0 miNNE (30°)20.7 mph29.9 mphClear
10:55 AM81.0 °F66.2 °F61 %30.04 in10.0 miNE (40°)21.9 mph31.1 mphClear
11:55 AM81.7 °F66.2 °F59 %30.02 in10.0 miNE (40°)20.7 mph32.2 mphPartly Cloudy
12:51 PM80.6 °F68.0 °F65 %29.99 in10.0 miNE (40°)26.5 mph31.1 mphMostly Cloudy
12:53 PM80.6 °F68.0 °F65 %29.99 in10.0 miNNE (30°)23.0 mph31.1 mphMostly Cloudy
12:55 PM80.1 °F67.3 °F65 %29.99 in10.0 miNE (40°)23.0 mph31.1 mphMostly Cloudy
1:20 PM80.6 °F66.2 °F61 %29.98 in10.0 miNE (40°)24.2 mph29.9 mphMostly Cloudy
1:23 PM80.6 °F66.2 °F61 %29.98 in10.0 miNE (40°)23.0 mphMostly Cloudy
1:55 PM81.3 °F65.8 °F59 %29.97 in10.0 miNE (40°)23.0 mph29.9 mphScattered Clouds
2:55 PM81.1 °F66.0 °F60 %29.96 in10.0 miNE (40°)25.3 mphScattered Clouds
3:45 PM80.6 °F66.2 °F61 %29.95 in10.0 miNE (50°)24.2 mph29.9 mphMostly Cloudy
3:55 PM80.1 °F66.6 °F63 %29.95 in10.0 miNE (40°)20.7 mphMostly Cloudy
3:59 PM80.6 °F66.2 °F61 %29.95 in10.0 miNE (40°)23.0 mphMostly Cloudy
4:07 PM78.8 °F66.2 °F65 %29.95 in10.0 miNE (40°)24.2 mphMostly Cloudy
4:17 PM78.8 °F66.2 °F65 %29.95 in10.0 miNE (40°)23.0 mph29.9 mphMostly Cloudy
4:41 PM78.8 °F66.2 °F65 %29.95 in10.0 miNE (50°)20.7 mph27.6 mphMostly Cloudy
4:42 PM78.8 °F66.2 °F65 %29.95 in10.0 miNE (40°)20.7 mph27.6 mphMostly Cloudy
4:55 PM78.8 °F66.6 °F66 %29.95 in10.0 miNE (40°)24.2 mphMostly Cloudy
5:55 PM77.7 °F66.6 °F68 %29.95 in10.0 miNE (40°)25.3 mphScattered Clouds
6:48 PM77.0 °F66.2 °F69 %29.97 in10.0 miNE (50°)18.4 mphMostly Cloudy
6:55 PM77.4 °F65.8 °F67 %29.97 in10.0 miNE (50°)21.9 mphOvercast
6:59 PM77.0 °F66.2 °F69 %29.97 in10.0 miNE (50°)19.6 mphMostly Cloudy
7:09 PM77.0 °F66.2 °F69 %29.97 in10.0 miENE (60°)21.9 mph28.8 mphMostly Cloudy
7:14 PM77.0 °F66.2 °F69 %29.97 in10.0 miNE (50°)21.9 mph28.8 mphMostly Cloudy
7:15 PM77.0 °F66.2 °F69 %29.97 in10.0 miNE (50°)21.9 mph26.5 mphMostly Cloudy
7:16 PM77.0 °F66.2 °F69 %29.97 in10.0 miNE (50°)23.0 mph26.5 mphMostly Cloudy
7:55 PM76.6 °F64.8 °F67 %29.98 in10.0 miNE (50°)23.0 mphPartly Cloudy
8:55 PM76.5 °F65.3 °F68 %29.99 in10.0 miENE (60°)21.9 mph28.8 mphPartly Cloudy
9:55 PM76.5 °F64.9 °F67 %30.00 in10.0 miENE (60°)23.0 mph29.9 mphScattered Clouds
10:55 PM75.9 °F63.9 °F66 %30.01 in10.0 miENE (60°)26.5 mph29.9 mphPartly Cloudy
11:55 PM76.3 °F63.3 °F64 %30.00 in10.0 miNE (50°)20.7 mphMostly Cloudy
Hourly data recorded from PGUA, located miles away from Tamuning, Guam







STORIES FROM OUR PARTNERS